This is the latest recevied weather packets stored in our database for station/object KN4MGS. If no packets are shown the sender has not sent any weather packets the latest 10 day(s).
| Time | Temp. | Humidity | Pressure | Rain* | Wind** | Luminosity | Snow |
|---|---|---|---|---|---|---|---|
| 1778026979 | 21.67° C | 55% | 1017.1 hPa | 0 mm | - | 0 W/m² | - |
| 1778026675 | 22.22° C | 53% | 1017.1 hPa | 0 mm | - | 0 W/m² | - |
| 1778026373 | 23.33° C | 51% | 1017.2 hPa | 0 mm | - | 3 W/m² | - |
| 1778026069 | 23.33° C | 50% | 1017 hPa | 0 mm | - | 4 W/m² | - |
| 1778025767 | 23.89° C | 48% | 1017.1 hPa | 0 mm | - | 7 W/m² | - |
| 1778025464 | 23.89° C | 48% | 1016.9 hPa | 0 mm | - | 10 W/m² | - |
| 1778025162 | 24.44° C | 48% | 1016.9 hPa | 0 mm | - | 16 W/m² | - |
| 1778024858 | 24.44° C | 46% | 1017 hPa | 0 mm | - | 19 W/m² | - |
| 1778024556 | 25° C | 46% | 1016.9 hPa | 0 mm | - | 24 W/m² | - |
| 1778024252 | 25° C | 46% | 1016.9 hPa | 0 mm | - | 29 W/m² | - |
| 1778023951 | 25.56° C | 45% | 1016.8 hPa | 0 mm | - | 34 W/m² | - |
| 1778023647 | 25.56° C | 44% | 1016.8 hPa | 0 mm | - | 39 W/m² | - |
| 1778023345 | 26.11° C | 44% | 1016.8 hPa | 0 mm | - | 46 W/m² | - |
| 1778023041 | 26.11° C | 44% | 1016.8 hPa | 0 mm | - | 69 W/m² | - |
| 1778022740 | 25.56° C | 44% | 1017 hPa | 0 mm | - | 80 W/m² | - |
| 1778022438 | 25.56° C | 44% | 1017.1 hPa | 0 mm | - | 92 W/m² | - |
| 1778022134 | 26.11° C | 44% | 1016.8 hPa | 0 mm | - | 57 W/m² | - |
| 1778021831 | 26.11° C | 44% | 1016.8 hPa | 0 mm | - | 121 W/m² | - |
| 1778021528 | 26.11° C | 43% | 1016.7 hPa | 0 mm | - | 74 W/m² | - |
| 1778021223 | 26.11° C | 44% | 1016.9 hPa | 0 mm | - | 180 W/m² | - |
| 1778020921 | 26.67° C | 43% | 1017 hPa | 0 mm | - | 103 W/m² | - |
| 1778020618 | 26.67° C | 43% | 1016.8 hPa | 0 mm | - | 203 W/m² | - |
| 1778020314 | 26.67° C | 42% | 1016.8 hPa | 0 mm | - | 243 W/m² | - |
| 1778020010 | 26.67° C | 43% | 1016.7 hPa | 0 mm | - | 239 W/m² | - |
| 1778019707 | 26.11° C | 43% | 1016.9 hPa | 0 mm | - | 194 W/m² | - |
* Rain latest hour (hover to see other rain measurements)
** Current wind speed in m/s (hover to see current wind gust speed)